Location: Los Gatos B&B
(42.6926°N, 77.0646°W)
Time: 03:20:17
(UTC-05:00)

Amateur Radio Satellites - All Passes

Search period start: 17 December 2017 02:50
Search period end: 18 December 2017 02:50
Location: Los Gatos B&B, 42.6926°N, 77.0646°W

Satellite Date Start Highest point End Downlink Frequencies (MHz)
Time Altitude Azimuth
Oscar 19 17 Dec 02:56:20 03:00:39 27° 295° (WNW) 03:04:57 437.125/150
ITUPSAT 1 17 Dec 03:07:56 03:12:36 57° 259° (W) 03:17:18 437.325
CUBESAT XI-V 17 Dec 03:24:21 03:29:00 77° 76° (ENE) 03:33:43 437.345
KKS-1 17 Dec 03:26:39 03:29:34 17° 63° (ENE) 03:32:29 437.445
MOZHAYETS 4 17 Dec 03:32:35 03:36:06 22° 267° (W) 03:39:40
BEESAT 3 17 Dec 03:48:34 03:52:22 45° 52° (NE) 03:56:07 437.485
M-CUBED/EXP-1 PRIME 17 Dec 03:51:17 03:55:43 62° 105° (ESE) 03:59:52 437.505
Gurwin Techsat 1B 17 Dec 04:01:25 04:03:01 11° 304° (NW) 04:04:38 435.225
STARS 17 Dec 04:02:11 04:04:53 16° 63° (ENE) 04:07:35 437.465
ITAMSAT 1 17 Dec 04:13:27 04:18:40 83° 286° (WNW) 04:23:50 435.822/435.867
PCSat 17 Dec 04:14:45 04:19:35 33° 250° (WSW) 04:24:22 145.827
DOVE 4 17 Dec 04:16:29 04:19:53 21° 92° (E) 04:23:08 437.250
BEESAT 17 Dec 04:18:55 04:20:41 12° 271° (W) 04:22:29 436.000
YUBILEINY 17 Dec 04:22:42 04:30:35 35° 291° (WNW) 04:38:32 435.215
AO-85 17 Dec 04:24:28 04:27:24 16° 39° (NE) 04:30:26 145.980
AO-7 17 Dec 04:28:25 04:36:44 69° 293° (WNW) 04:45:00 .
BEESAT 2 17 Dec 04:35:02 04:38:53 40° 51° (NE) 04:42:38 435.950
KKS-1 17 Dec 05:01:24 05:05:43 50° 260° (W) 05:10:05 437.445
CUBESAT XI-V 17 Dec 05:05:33 05:06:55 11° 272° (W) 05:08:17 437.345
XW-2D 17 Dec 05:07:40 05:09:12 12° 90° (E) 05:10:43 145.860 - 145.880
XW-2B 17 Dec 05:22:42 05:25:20 17° 93° (E) 05:27:56 145.730 - 145.750
M-CUBED/EXP-1 PRIME 17 Dec 05:26:52 05:29:31 16° 304° (NW) 05:32:06 437.505
BEESAT 3 17 Dec 05:27:04 05:29:32 16° 249° (WSW) 05:31:57 437.485
XW-2F 17 Dec 05:32:01 05:34:59 21° 94° (E) 05:37:55 145.980 - 146.000
STARS 17 Dec 05:36:30 05:40:47 52° 259° (W) 05:45:06 437.465
XW-2C 17 Dec 05:49:31 05:53:07 36° 98° (E) 05:56:41 145.795 - 145.815
DOVE 4 17 Dec 05:53:40 05:57:41 34° 291° (WNW) 06:01:31 437.250
ITAMSAT 1 17 Dec 05:55:27 05:57:17 12° 303° (WNW) 05:59:08 435.822/435.867
CUTE-I 17 Dec 05:58:52 06:03:48 38° 97° (E) 06:08:42 437.470
NO-84 17 Dec 06:03:34 06:06:31 85° 319° (NW) 06:09:43 435.350 FM
AO-85 17 Dec 06:03:38 06:08:27 85° 56° (NE) 06:13:37 145.980
HO-68 17 Dec 06:05:21 06:10:51 23° 92° (E) 06:16:19 435.675
BEESAT 2 17 Dec 06:13:25 06:16:18 19° 248° (WSW) 06:19:10 435.950
AO-7 17 Dec 06:23:02 06:28:00 18° 314° (NW) 06:32:59 .
LilacSat-2 17 Dec 06:29:21 06:33:12 64° 285° (WNW) 06:37:02 437.200
FO-29 17 Dec 06:29:28 06:36:10 33° 62° (ENE) 06:42:49 435.910
STRAND 1 17 Dec 06:30:22 06:35:25 65° 73° (ENE) 06:40:29 437.568
NUDT-PHONESAT 17 Dec 06:31:51 06:35:38 83° 104° (ESE) 06:39:23 437.300
XW-2D 17 Dec 06:39:53 06:43:38 49° 286° (WNW) 06:47:21 145.860 - 145.880
KAITUO 1B 17 Dec 06:40:41 06:44:28 72° 285° (WNW) 06:48:14 145.475/437.950
SEEDS 17 Dec 06:54:47 06:58:36 31° 96° (E) 07:02:21 437.485
XW-2B 17 Dec 06:56:05 06:59:35 34° 289° (WNW) 07:03:03 145.730 - 145.750
UWE-3 17 Dec 06:58:33 07:01:46 20° 93° (E) 07:05:02 435.000/436.395/437.385
CUBEBUG 2 17 Dec 07:04:12 07:08:14 39° 98° (E) 07:12:23 437.445
AAUSAT CUBESAT 2 17 Dec 07:05:42 07:08:31 17° 92° (E) 07:11:19 437.432
XW-2F 17 Dec 07:05:46 07:09:04 28° 290° (WNW) 07:12:21 145.980 - 146.000
ZACube-1 17 Dec 07:17:27 07:20:20 17° 92° (E) 07:23:15 437.345
O/OREOS (USA 219) 17 Dec 07:20:43 07:24:48 33° 105° (ESE) 07:28:53 437.305
CUTE 1.7 + AOD 2 17 Dec 07:23:02 07:27:21 76° 284° (WNW) 07:31:36 437.475
XW-2C 17 Dec 07:24:28 07:26:59 17° 294° (WNW) 07:29:31 145.795 - 145.815
Oscar 11 17 Dec 07:32:44 07:34:58 14° 90° (E) 07:37:11 .
CUTE-I 17 Dec 07:39:10 07:43:42 29° 295° (WNW) 07:48:14 437.470
NO-84 17 Dec 07:42:08 07:44:14 16° 341° (NNW) 07:46:26 435.350 FM
AO-85 17 Dec 07:46:02 07:48:20 13° 252° (WSW) 07:50:42 145.980
AO-73 17 Dec 07:48:47 07:52:43 32° 96° (E) 07:56:43 145.935
TIGRISAT 17 Dec 07:50:23 07:52:17 13° 62° (ENE) 07:54:10 435.000
HO-68 17 Dec 07:52:01 07:59:08 68° 290° (WNW) 08:06:12 435.675
UNISAT 6 17 Dec 07:53:48 07:56:17 15° 64° (ENE) 07:58:46 437.425
XW-2A 17 Dec 07:55:34 07:58:59 67° 101° (E) 08:02:23 145.665 - 145.685
STRAND 1 17 Dec 08:12:01 08:15:02 16° 270° (W) 08:18:03 437.568
FO-29 17 Dec 08:13:00 08:20:41 61° 260° (W) 08:28:26 435.910
SEEDS 17 Dec 08:30:43 08:34:06 23° 293° (WNW) 08:37:28 437.485
UWE-3 17 Dec 08:34:17 08:38:19 38° 289° (WNW) 08:42:27 435.000/436.395/437.385
AAUSAT CUBESAT 2 17 Dec 08:40:14 08:44:07 39° 289° (WNW) 08:47:59 437.432
CUBEBUG 2 17 Dec 08:41:30 08:44:37 20° 294° (WNW) 08:47:46 437.445
Max Valier Satellite 17 Dec 08:50:10 08:51:13 11° 90° (E) 08:52:14 145.860
ZACube-1 17 Dec 08:52:37 08:56:49 46° 288° (WNW) 09:01:05 437.345
O/OREOS (USA 219) 17 Dec 09:00:19 09:04:12 27° 302° (WNW) 09:08:08 437.305
Oscar 11 17 Dec 09:07:09 09:11:26 56° 286° (WNW) 09:15:41 .
EO-88 17 Dec 09:10:37 09:12:21 13° 91° (E) 09:14:05 145.990 - 145.960
PRISM 17 Dec 09:13:27 09:17:07 31° 69° (ENE) 09:20:48 437.425
DELFI C3 17 Dec 09:14:31 09:18:07 33° 97° (E) 09:21:39 145.870
NO-84 17 Dec 09:21:44 09:22:40 11° 3° (N) 09:23:36 435.350 FM
TIGRISAT 17 Dec 09:24:13 09:28:27 63° 259° (W) 09:32:41 435.000
AO-73 17 Dec 09:25:14 09:28:49 25° 292° (WNW) 09:32:26 145.935
UNISAT 6 17 Dec 09:28:25 09:32:35 51° 260° (W) 09:36:45 437.425
HO-68 17 Dec 09:42:02 09:45:34 14° 310° (NW) 09:49:05 435.675
POLYITAN 1 17 Dec 09:56:10 09:57:36 12° 61° (ENE) 09:59:02 437.675
ISS 17 Dec 09:56:30 09:59:07 22° 135° (SE) 10:01:44 437.550
FO-29 17 Dec 10:05:15 10:07:04 11° 278° (W) 10:08:55 435.910
QB50P2 17 Dec 10:19:59 10:23:17 23° 67° (ENE) 10:26:36 145.880/145.840
DUCHIFAT 1 17 Dec 10:21:00 10:23:36 16° 64° (ENE) 10:26:13 145.980
Max Valier Satellite 17 Dec 10:21:40 10:25:18 51° 286° (WNW) 10:28:56 145.860
AIST 2D 17 Dec 10:34:21 10:37:51 89° 250° (WSW) 10:41:25 435.315
nSIGHT-1 17 Dec 10:39:15 10:42:27 77° 144° (SE) 10:45:40 .
EO-88 17 Dec 10:42:42 10:46:11 41° 287° (WNW) 10:49:38 145.990 - 145.960
NANOSAT C BR1 17 Dec 10:47:46 10:51:35 35° 70° (ENE) 10:55:24 145.865
PRISM 17 Dec 10:49:06 10:52:24 22° 265° (W) 10:55:42 437.425
DELFI C3 17 Dec 10:49:47 10:52:37 19° 293° (WNW) 10:55:25 145.870
NO-84 17 Dec 10:58:19 11:01:02 20° 24° (NNE) 11:03:53 435.350 FM
LO-87 17 Dec 11:03:31 11:06:51 37° 98° (E) 11:10:10 145.935 - 145.965
EO-79 17 Dec 11:04:48 11:08:55 63° 75° (ENE) 11:13:04 145.935-145.965
POLYITAN 1 17 Dec 11:28:37 11:32:47 70° 258° (WSW) 11:36:58 437.675
ISS 17 Dec 11:32:12 11:35:24 49° 332° (NNW) 11:38:37 437.550
ESTCUBE 1 17 Dec 11:41:03 11:45:37 76° 103° (ESE) 11:50:08 437.505/2401.250
SPROUT 17 Dec 11:42:59 11:46:00 19° 93° (E) 11:48:59 437.525
AO-7 17 Dec 11:52:27 11:53:14 10° 37° (NE) 11:54:01 .
DUCHIFAT 1 17 Dec 11:54:54 11:58:53 45° 261° (W) 12:02:55 145.980
QB50P2 17 Dec 11:55:09 11:58:54 31° 263° (W) 12:02:39 145.880/145.840
AO-91 17 Dec 11:59:10 12:03:03 26° 70° (ENE) 12:06:38 145.960
Gurwin Techsat 1B 17 Dec 12:01:57 12:06:13 25° 64° (ENE) 12:10:31 435.225
nSIGHT-1 17 Dec 12:16:16 12:18:56 23° 343° (NNW) 12:21:37 .
BUGSAT 1 17 Dec 12:23:09 12:27:11 85° 73° (ENE) 12:31:13 437.445
NANOSAT C BR1 17 Dec 12:24:19 12:27:22 20° 267° (W) 12:30:26 145.865
Oscar 19 17 Dec 12:34:03 12:39:06 64° 73° (ENE) 12:44:14 437.125/150
YUBILEINY 17 Dec 12:34:33 12:41:51 28° 66° (ENE) 12:49:05 435.215
NO-84 17 Dec 12:34:57 12:38:40 90° 222° (SW) 12:42:40 435.350 FM
LO-87 17 Dec 12:38:00 12:39:55 14° 294° (WNW) 12:41:50 145.935 - 145.965
EO-79 17 Dec 12:43:48 12:45:05 11° 270° (W) 12:46:21 145.935-145.965
VELOX 1 17 Dec 13:01:00 13:05:25 78° 103° (ESE) 13:09:48 145.980
M-CUBED/EXP-1 PRIME 17 Dec 13:05:50 13:07:15 11° 53° (NE) 13:08:41 437.505
ISS 17 Dec 13:10:02 13:12:27 19° 351° (N) 13:14:52 437.550
SPROUT 17 Dec 13:18:04 13:22:01 38° 289° (WNW) 13:25:57 437.525
ESTCUBE 1 17 Dec 13:19:54 13:21:46 12° 300° (WNW) 13:23:38 437.505/2401.250
RS-15 17 Dec 13:23:04 13:34:25 46° 109° (ESE) 13:45:42 29.354- 29.394
UKube-1 17 Dec 13:25:26 13:28:25 18° 93° (E) 13:31:22 .
SO-50 17 Dec 13:29:34 13:31:15 12° 108° (ESE) 13:32:59 436.795
AO-91 17 Dec 13:35:07 13:39:24 32° 262° (W) 13:43:18 145.960
AO-7 17 Dec 13:36:08 13:43:45 42° 60° (ENE) 13:51:24 .
Gurwin Techsat 1B 17 Dec 13:40:49 13:45:53 45° 261° (W) 13:51:00 435.225
DX 1 17 Dec 13:46:54 13:51:08 50° 100° (E) 13:55:20 434.975-435.025
nSIGHT-1 17 Dec 13:53:46 13:55:58 17° 3° (N) 13:58:09 .
ITAMSAT 1 17 Dec 13:54:19 13:58:16 22° 63° (ENE) 14:02:14 435.822/435.867
NO-84 17 Dec 14:13:54 14:15:31 12° 235° (SW) 14:17:11 435.350 FM
Oscar 19 17 Dec 14:15:45 14:18:52 16° 269° (W) 14:22:00 437.125/150
50 SAT 17 Dec 14:18:48 14:21:52 47° 286° (WNW) 14:24:53 437.505
YUBILEINY 17 Dec 14:30:40 14:39:24 68° 267° (W) 14:48:03 435.215
M-CUBED/EXP-1 PRIME 17 Dec 14:36:23 14:40:47 84° 71° (ENE) 14:45:26 437.505
BEESAT 17 Dec 14:38:00 14:41:09 17° 92° (E) 14:44:17 436.000
VELOX 1 17 Dec 14:39:43 14:41:12 12° 300° (WNW) 14:42:42 145.980
ISS 17 Dec 14:47:15 14:49:47 20° 12° (NNE) 14:52:19 437.550
UKube-1 17 Dec 15:00:32 15:04:36 41° 290° (WNW) 15:08:37 .
SO-50 17 Dec 15:06:36 15:11:04 76° 306° (NW) 15:15:35 436.795
ITUPSAT 1 17 Dec 15:07:38 15:11:57 33° 97° (E) 15:16:16 437.325
CUBESAT XI-V 17 Dec 15:21:02 15:24:16 18° 91° (E) 15:27:30 437.345
DOVE 4 17 Dec 15:21:28 15:25:53 29° 68° (ENE) 15:30:12 437.250
DX 1 17 Dec 15:24:11 15:26:54 16° 297° (WNW) 15:29:37 434.975-435.025
MOZHAYETS 4 17 Dec 15:25:14 15:29:53 80° 102° (ESE) 15:34:31
AO-7 17 Dec 15:28:28 15:36:22 48° 259° (W) 15:44:24 .
nSIGHT-1 17 Dec 15:29:54 15:32:52 32° 23° (NNE) 15:35:49 .
ITAMSAT 1 17 Dec 15:32:20 15:37:23 50° 260° (W) 15:42:27 435.822/435.867
RS-15 17 Dec 15:34:26 15:46:37 61° 312° (NW) 15:58:41 29.354- 29.394
XW-2B 17 Dec 16:06:42 16:07:15 10° 62° (ENE) 16:07:48 145.730 - 145.750
BEESAT 17 Dec 16:14:35 16:19:12 52° 289° (WNW) 16:23:49 436.000
XW-2F 17 Dec 16:14:45 16:16:17 12° 64° (ENE) 16:17:50 145.980 - 146.000
M-CUBED/EXP-1 PRIME 17 Dec 16:15:04 16:15:45 10° 268° (W) 16:16:26 437.505
ISS 17 Dec 16:23:28 16:26:45 63° 31° (NNE) 16:30:00 437.550
YUBILEINY 17 Dec 16:31:13 16:34:23 12° 288° (WNW) 16:37:32 435.215
XW-2C 17 Dec 16:31:45 16:34:36 20° 67° (ENE) 16:37:28 145.795 - 145.815
HO-68 17 Dec 16:35:55 16:40:56 21° 55° (NE) 16:45:57 435.675
ITUPSAT 1 17 Dec 16:45:37 16:49:39 28° 294° (WNW) 16:53:41 437.325
SO-50 17 Dec 16:50:00 16:52:19 14° 325° (NW) 16:54:38 436.795
KKS-1 17 Dec 16:51:39 16:55:27 27° 96° (E) 16:59:13 437.445
CUBESAT XI-V 17 Dec 16:57:21 17:01:53 48° 288° (WNW) 17:06:23 437.345
DOVE 4 17 Dec 16:58:35 17:03:25 37° 263° (W) 17:08:07 437.250
MOZHAYETS 4 17 Dec 17:04:34 17:06:21 12° 300° (WNW) 17:08:10
nSIGHT-1 17 Dec 17:06:05 17:09:06 38° 221° (SW) 17:12:07 .
NUDT-PHONESAT 17 Dec 17:11:08 17:14:34 38° 72° (ENE) 17:18:02 437.300
LilacSat-2 17 Dec 17:11:18 17:15:04 65° 75° (ENE) 17:18:55 437.200
PCSat 17 Dec 17:14:07 17:18:39 28° 109° (ESE) 17:23:13 145.827
KAITUO 1B 17 Dec 17:20:38 17:24:17 54° 75° (ENE) 17:28:00 145.475/437.950
XW-2D 17 Dec 17:21:02 17:24:49 83° 77° (ENE) 17:28:39 145.860 - 145.880
CUTE-I 17 Dec 17:21:12 17:26:30 67° 73° (ENE) 17:31:50 437.470
STARS 17 Dec 17:25:15 17:28:51 25° 95° (E) 17:32:26 437.465
O/OREOS (USA 219) 17 Dec 17:29:28 17:33:59 72° 65° (ENE) 17:38:26 437.305
XW-2B 17 Dec 17:37:05 17:40:50 65° 258° (WSW) 17:44:39 145.730 - 145.750
XW-2F 17 Dec 17:46:14 17:49:55 52° 260° (W) 17:53:39 145.980 - 146.000
SEEDS 17 Dec 17:47:07 17:50:32 24° 68° (ENE) 17:53:59 437.485
RS-15 17 Dec 17:52:13 18:02:19 28° 342° (NNW) 18:12:11 29.354- 29.394
UWE-3 17 Dec 17:56:55 17:59:35 17° 65° (ENE) 18:02:16 435.000/436.395/437.385
AAUSAT CUBESAT 2 17 Dec 17:57:09 17:59:18 14° 63° (ENE) 18:01:26 437.432
ISS 17 Dec 18:00:44 18:02:55 17° 227° (SW) 18:05:04 437.550
CUBEBUG 2 17 Dec 18:03:06 18:06:53 34° 70° (ENE) 18:10:37 437.445
XW-2C 17 Dec 18:05:16 18:08:36 29° 264° (W) 18:11:57 145.795 - 145.815
ZACube-1 17 Dec 18:14:52 18:17:03 14° 63° (ENE) 18:19:13 437.345
CUTE 1.7 + AOD 2 17 Dec 18:15:45 18:20:00 81° 79° (ENE) 18:24:19 437.475
HO-68 17 Dec 18:20:36 18:27:48 85° 253° (WSW) 18:35:02 435.675
XW-2A 17 Dec 18:27:25 18:30:08 23° 69° (ENE) 18:32:51 145.665 - 145.685
KKS-1 17 Dec 18:28:08 18:31:57 29° 293° (WNW) 18:35:43 437.445
Oscar 11 17 Dec 18:29:00 18:30:48 12° 62° (ENE) 18:32:37 .
STRAND 1 17 Dec 18:40:52 18:44:38 20° 93° (E) 18:48:23 437.568
AO-73 17 Dec 18:45:15 18:48:38 25° 68° (ENE) 18:52:05 145.935
NUDT-PHONESAT 17 Dec 18:46:32 18:48:34 14° 268° (W) 18:50:37 437.300
PCSat 17 Dec 18:56:39 19:01:49 44° 307° (NW) 19:07:01 145.827
KAITUO 1B 17 Dec 18:57:50 18:58:35 10° 270° (W) 18:59:20 145.475/437.950
STARS 17 Dec 19:01:21 19:05:11 31° 292° (WNW) 19:09:00 437.465
CUTE-I 17 Dec 19:03:44 19:07:01 16° 269° (W) 19:10:19 437.470
O/OREOS (USA 219) 17 Dec 19:11:28 19:12:43 11° 263° (W) 19:13:57 437.305
BEESAT 3 17 Dec 19:15:08 19:19:03 63° 121° (ESE) 19:23:02 437.485
SEEDS 17 Dec 19:22:20 19:26:05 30° 264° (W) 19:29:51 437.485
FO-29 17 Dec 19:24:22 19:29:09 21° 87° (E) 19:33:32 435.910
AAUSAT CUBESAT 2 17 Dec 19:30:08 19:34:15 57° 260° (W) 19:38:23 437.432
UWE-3 17 Dec 19:31:47 19:35:43 42° 262° (W) 19:39:41 435.000/436.395/437.385
CUBEBUG 2 17 Dec 19:40:30 19:43:35 20° 267° (W) 19:46:39 437.445
ZACube-1 17 Dec 19:48:49 19:52:52 53° 261° (W) 19:56:57 437.345
XW-2A 17 Dec 20:00:20 20:02:46 19° 266° (W) 20:05:14 145.665 - 145.685
DELFI C3 17 Dec 20:00:30 20:03:34 22° 68° (ENE) 20:06:40 145.870
Oscar 11 17 Dec 20:02:04 20:06:22 69° 259° (W) 20:10:42 .
BEESAT 2 17 Dec 20:03:28 20:07:23 56° 119° (ESE) 20:11:23 435.950
RS-15 17 Dec 20:10:08 20:20:05 28° 18° (NNE) 20:29:37 29.354- 29.394
HO-68 17 Dec 20:12:37 20:16:29 15° 272° (W) 20:20:23 435.675
STRAND 1 17 Dec 20:19:09 20:24:04 49° 289° (WNW) 20:28:57 437.568
AO-85 17 Dec 20:20:21 20:23:08 19° 111° (ESE) 20:26:02 145.980
AO-73 17 Dec 20:21:17 20:24:47 27° 265° (W) 20:28:20 145.935
PCSat 17 Dec 20:45:52 20:46:41 10° 329° (NNW) 20:47:30 145.827
BEESAT 3 17 Dec 20:54:22 20:56:58 16° 319° (NW) 20:59:35 437.485
Max Valier Satellite 17 Dec 21:00:27 21:04:05 72° 76° (ENE) 21:07:46 145.860
FO-29 17 Dec 21:08:11 21:14:56 65° 289° (WNW) 21:20:50 435.910
TIGRISAT 17 Dec 21:14:54 21:18:29 24° 95° (E) 21:22:06 435.000
UNISAT 6 17 Dec 21:18:59 21:22:49 29° 96° (E) 21:26:42 437.425
EO-88 17 Dec 21:20:07 21:23:45 86° 78° (ENE) 21:27:26 145.990 - 145.960
FALCONSAT 3 17 Dec 21:28:33 21:31:21 20° 167° (SSE) 21:34:09 435.103
DELFI C3 17 Dec 21:34:38 21:38:09 30° 264° (W) 21:41:42 145.870
LO-87 17 Dec 21:40:40 21:43:05 18° 67° (ENE) 21:45:30 145.935 - 145.965
BEESAT 2 17 Dec 21:42:37 21:45:26 18° 318° (NW) 21:48:17 435.950
SO-50 17 Dec 21:57:19 22:00:40 19° 40° (NE) 22:04:03 436.795
AO-85 17 Dec 21:59:29 22:03:12 39° 310° (NW) 22:07:09 145.980
RS-15 17 Dec 22:23:48 22:35:37 63° 49° (NE) 22:46:45 29.354- 29.394
PRISM 17 Dec 22:28:28 22:32:23 43° 99° (E) 22:36:15 437.425
SPROUT 17 Dec 22:37:19 22:39:59 17° 64° (ENE) 22:42:41 437.525
ESTCUBE 1 17 Dec 22:40:48 22:45:18 75° 76° (ENE) 22:49:51 437.505/2401.250
TIGRISAT 17 Dec 22:51:18 22:55:11 32° 290° (WNW) 22:59:08 435.000
UNISAT 6 17 Dec 22:55:46 22:59:27 27° 292° (WNW) 23:03:10 437.425
FO-29 17 Dec 22:55:53 22:58:28 12° 310° (NW) 23:00:56 435.910
FALCONSAT 3 17 Dec 23:06:47 23:09:54 26° 183° (S) 23:13:01 435.103
LO-87 17 Dec 23:13:10 23:16:16 28° 263° (W) 23:19:22 145.935 - 145.965
POLYITAN 1 17 Dec 23:13:22 23:16:14 18° 93° (E) 23:19:06 437.675
AIST 2D 17 Dec 23:31:14 23:34:47 80° 284° (WNW) 23:38:19 435.315
SO-50 17 Dec 23:36:57 23:41:36 71° 239° (WSW) 23:46:19 436.795
DUCHIFAT 1 17 Dec 23:38:04 23:41:32 25° 95° (E) 23:45:00 145.980
QB50P2 17 Dec 23:38:34 23:42:30 37° 98° (E) 23:46:26 145.880/145.840
VELOX 1 17 Dec 23:58:22 00:02:48 74° 74° (ENE) 00:07:16 145.980
PRISM 18 Dec 00:04:41 00:07:17 17° 296° (WNW) 00:09:53 437.425
NANOSAT C BR1 18 Dec 00:06:08 00:10:18 59° 101° (E) 00:14:28 145.865
BUGSAT 1 18 Dec 00:06:09 00:07:18 11° 90° (E) 00:08:26 437.445
SPROUT 18 Dec 00:11:25 00:15:30 47° 261° (W) 00:19:37 437.525
UKube-1 18 Dec 00:20:42 00:23:38 18° 64° (ENE) 00:26:34 .
ESTCUBE 1 18 Dec 00:21:26 00:22:37 11° 271° (W) 00:23:47 437.505/2401.250
EO-79 18 Dec 00:23:57 00:28:11 76° 284° (WNW) 00:32:24 145.935-145.965
RS-15 18 Dec 00:36:59 00:47:31 42° 252° (WSW) 00:57:35 29.354- 29.394
DX 1 18 Dec 00:42:44 00:46:56 48° 71° (ENE) 00:51:09 434.975-435.025
50 SAT 18 Dec 00:44:52 00:47:53 44° 73° (ENE) 00:50:56 437.505
Oscar 19 18 Dec 00:45:34 00:49:28 21° 93° (E) 00:53:20 437.125/150
FALCONSAT 3 18 Dec 00:46:01 00:48:23 16° 198° (SSW) 00:50:46 435.103
POLYITAN 1 18 Dec 00:48:11 00:52:10 41° 289° (WNW) 00:56:09 437.675
DUCHIFAT 1 18 Dec 01:13:32 01:17:10 29° 291° (WNW) 01:20:47 145.980
QB50P2 18 Dec 01:14:55 01:18:02 20° 294° (WNW) 01:21:10 145.880/145.840
AO-91 18 Dec 01:24:00 01:27:13 38° 99° (E) 01:30:23 145.960
YUBILEINY 18 Dec 01:37:07 01:44:24 30° 82° (E) 01:51:43 435.215
VELOX 1 18 Dec 01:38:45 01:39:44 11° 271° (W) 01:40:43 145.980
BUGSAT 1 18 Dec 01:39:00 01:43:00 61° 286° (WNW) 01:47:02 437.445
NANOSAT C BR1 18 Dec 01:43:27 01:45:31 13° 297° (WNW) 01:47:35 145.865
BEESAT 18 Dec 01:44:55 01:48:36 23° 65° (ENE) 01:52:18 436.000
UKube-1 18 Dec 01:55:10 01:59:18 44° 261° (W) 02:03:28 .
Gurwin Techsat 1B 18 Dec 01:55:51 02:01:11 68° 102° (ESE) 02:06:28 435.225
PCSat 18 Dec 02:00:29 02:05:13 30° 48° (NE) 02:09:56 145.827
ITUPSAT 1 18 Dec 02:14:52 02:19:20 43° 70° (ENE) 02:23:49 437.325
DX 1 18 Dec 02:20:37 02:23:21 16° 268° (W) 02:26:06 434.975-435.025
Oscar 19 18 Dec 02:24:00 02:29:02 50° 290° (WNW) 02:34:02 437.125/150
CUBESAT XI-V 18 Dec 02:25:01 02:28:25 20° 64° (ENE) 02:31:51 437.345
MOZHAYETS 4 18 Dec 02:27:27 02:31:59 82° 77° (ENE) 02:36:35
